Home > Weather > Rio de Janeiro > Past weeks

Flag for Brazil Past Weather in Rio de Janeiro, Rio de Janeiro, Brazil — Yesterday and Last 2 Weeks

Now
70 °F

Mostly cloudy.


Feels Like: 70 °F
Forecast: N/A
Wind: 2 mph from Southwest

Location: Rio De Janeiro Airport

Current Time: Jul 28, 2016 at 7:34:54 PM

Latest Report: Jul 28, 2016 at 7:00 PM


Visibility: N/A

Pressure: 30.21 "Hg

Humidity: 64%

Dew Point: 57 °F

Location of Rio de JaneiroLocation

Past Weather in Rio de Janeiro — Graph

°F

Rio de Janeiro Temperature Yesterday

Maximum temperature yesterday: 91 °F (at 1:00 PM)
Minimum temperature yesterday: 68 °F (at 6:00 AM)
Average temperature yesterday: 75 °F

High & Low Weather Summary for the Past Weeks

 TemperatureHumidityPressure
High91 °F (Jul 27, 1:00 PM)100% (Jul 15, 2:00 AM)30.24 "Hg (Jul 15, 2:00 AM)
Low61 °F (Jul 19, 6:00 AM)38% (Jul 14, 3:00 PM)29.71 "Hg (Jul 16, 2:00 PM)
Average71 °F73%30.07 "Hg
* Reported Jul 13 6:00 PM — Jul 28 6:00 PM, Rio de Janeiro, Weather by CustomWeather, © 2016

Note: Actual official high and low records may vary slightly from our data, if they occured in-between our weather recording intervals... More about our weather records

Advertising

Rio de Janeiro Weather History for the Previous 24 Hours

Scroll right to see more
 ConditionsComfort  
Time TempWeatherWind HumidityBarometerVisibility
6:00 PM
Thu, Jul 28
70 °FMostly cloudy.6 mph64%30.18 "HgN/A
5:00 PM70 °FMostly cloudy.8 mph69%30.18 "HgN/A
4:00 PM70 °FMore clouds than sun.8 mph73%30.15 "HgN/A
3:00 PM70 °FMore clouds than sun.8 mph69%30.15 "HgN/A
2:00 PM70 °FBroken clouds.5 mph69%30.18 "HgN/A
1:00 PM70 °FBroken clouds.8 mph64%30.18 "HgN/A
12:00 PM72 °FBroken clouds.8 mph65%30.21 "HgN/A
11:00 AM70 °FBroken clouds.5 mph64%30.21 "HgN/A
10:00 AM73 °FBroken clouds.7 mph61%30.21 "HgN/A
9:00 AM70 °FBroken clouds.6 mph73%30.24 "HgN/A
8:00 AM70 °FBroken clouds.3 mph69%30.21 "HgN/A
7:00 AM68 °FBroken clouds.9 mph73%30.18 "HgN/A
6:00 AM70 °FPartly sunny.7 mph64%30.18 "HgN/A
5:00 AM70 °FPassing clouds.7 mph64%30.15 "HgN/A
4:00 AM70 °FPassing clouds.3 mph69%30.15 "HgN/A
3:00 AM68 °FPartly cloudy.No wind78%30.15 "HgN/A
2:00 AM68 °FPassing clouds.No wind78%30.15 "HgN/A
1:00 AM70 °FPassing clouds.3 mph69%30.15 "HgN/A
12:00 AM70 °FPassing clouds.5 mph69%30.15 "HgN/A
11:00 PM
Wed, Jul 27
70 °FPassing clouds.6 mph69%30.15 "HgN/A
10:00 PM70 °FClear.5 mph64%30.15 "Hg10 mi
9:00 PM72 °FClear.1 mph57%30.15 "Hg10 mi
8:00 PM72 °FClear.3 mph57%30.12 "Hg10 mi
7:00 PM73 °FClear.9 mph44%30.09 "Hg10 mi
Weather by CustomWeather, © 2016

See weather overviewHow to use our weather pages